SL-16 DEB, 18416

Orbit data source: Space-Track

SL-16 DEB, 18416 is space debris in LEO originally from a launch on Wed, 18 Mar 1987 UTC launched from the Tyuratam Missile And Space Complex (TTMTR). Debris objects in space refer to the collection of defunct objects orbiting the Earth. Examples of debris include non-operational satellites, rocket bodies, and fragments generated from explosions, collisions, or faulty payload assembly.

Loading next visibility...
SL-16 DEB details
Identifier
18416, 1987-027C
Orbit
LEO
Last TLE update13 hours ago
Origin
Flag of CISUNKS (CIS)
ManufacturerYuzhnoe
MissionSpacecraft
Bus & MotorSEP MOTOR COVER, Unknown motor
Mass~0 kg wet, ~1 kg dry
Launch date (UTC)
1987-03-18 (38 years ago)
Launch vehicleUnknown
Launch site
Tyuratam Missile And Space Complex (TTMTR)
Object type
Payload
Rocket body
Debris
Shape & HBRUnknown
Radar Cross SectionSmall (<0.1 m²)

Expand to show TLE details & history

TLE from 13 hours ago
0 SL-16 DEB
1 18416U 87027C   24361.12527605  .00000166  00000-0  18472-3 0  9996
2 18416  71.0344 237.2707 0185946 146.8653  14.7983 13.77374359897594
Epoch: 2024-12-26T03:00Z
Definitive object data (Epoch: 2024-12-26T03:00:23.85Z)
Latitude16.78091°
Longitude-88.85447°
Altitude842.94 km
Speed7.499 km/s
True Right ascension03h 25m 24s
True Declination16° 41' 14"
Sunlit
Object was in full shadow at TLE epoch
Visualization TLE readout
Latitude-52.56178°
Longitude-57.44636°
Altitude992.273 km
Speed7.355 km/s
Apparent Right ascension04h 09m 50s
Apparent Declination-48° 11' 26"
Sunlit
Object is in daylight
Visualization observer readout
Local Sidereal Time14:55:41
Azimuth231.914° WSW
Elevation-74.378°
Doppler factor1
Orbital elements
Apogee altitude1,107.829 km
Perigee altitude834.514 km
Semi-major axis7,349.309 km
Eccentricity0.0185946
Inclination71.0344°
RAAN237.2707°
Arg. of periapsis146.8653°
True anomaly15.35503°
Mean anomaly14.7983°
Eccentric anomaly15.0754°
Mean motion3.44487 °/min
BSTAR0.00018472
Orbital period104.5 mins
Loading maneuver chart data...
Loading historical data...
Loading historical data...
Loading historical data...
Loading historical data...
Loading historical data...
Loading historical data...
Loading historical data...

SL-16 DEB Visibility forecast

Observer location: undefined°, undefined

Span
Click to sort rows by Start time (UTC) header in descending order
Start Az.
Max El. time (UTC)
Max El. Az.
Max El.
End time (UTC)
End Az.
10 mins2024-12-26 16:16:39.452Z157.46° SSE2024-12-26 16:21:39.452Z106.479° ESE25.515°2024-12-26 16:26:39.452Z48.785° ENE
10 mins2024-12-26 18:03:39.452Z229.99° WSW2024-12-26 18:08:39.452Z300.023° NW36.259°2024-12-26 18:13:39.452Z8.489° NNE
4 mins2024-12-27 01:28:39.452Z32.533° NE2024-12-27 01:29:39.452Z44.657° NE15.001°2024-12-27 01:32:39.452Z79.672° E
9 mins2024-12-27 03:13:39.452Z333.246° NNW2024-12-27 03:17:39.452Z243.134° WSW44.498°2024-12-27 03:22:39.452Z163.612° S
|